| time (UTC) | temp C | wind direction | speed KPH | gust KPH | rain 1hr cm | rain 24hr cm | rain mn cm | humidity % | barometer mb |
| 20260505024550 | -17 | 0.0 | 0.0 | 0.00 | 0.00 | 0.00 | 1008.3 | ||
| 20260505023047 | -17 | 0.0 | 0.0 | 0.00 | 0.00 | 0.00 | 1007.8 | ||
| 20260505021542 | -17 | 0.0 | 0.0 | 0.00 | 0.00 | 0.00 | 1007.1 | ||
| 20260505020042 | -17 | 0.0 | 0.0 | 0.00 | 0.00 | 0.00 | 1006.9 | ||
| 20260505014559 | -17 | 0.0 | 0.0 | 0.00 | 0.00 | 0.00 | 1006.6 | ||
| 20260505013047 | -17 | 0.0 | 0.0 | 0.00 | 0.00 | 0.00 | 1005.8 | ||
| 20260505011547 | -17 | 0.0 | 0.0 | 0.00 | 0.00 | 0.00 | 1005.2 | ||
| 20260505010045 | -17 | 0.0 | 0.0 | 0.00 | 0.00 | 0.00 | 1005.0 | ||
| 20260505004541 | -17 | 0.0 | 0.0 | 0.00 | 0.00 | 0.00 | 1005.2 | ||
| 20260505003047 | -17 | 0.0 | 0.0 | 0.00 | 0.00 | 0.00 | 1005.2 | ||
| 20260505001547 | -17 | 0.0 | 0.0 | 0.00 | 0.00 | 0.00 | 1004.7 | ||
| 20260505000037 | -17 | 0.0 | 0.0 | 0.00 | 0.00 | 0.00 | 1004.5 | ||
| 20260504234544 | -17 | 0.0 | 0.0 | 0.00 | 0.00 | 0.00 | 1004.7 | ||
| 20260504233043 | -17 | 0.0 | 0.0 | 0.00 | 0.00 | 0.00 | 1004.5 | ||
| 20260504231541 | -17 | 0.0 | 0.0 | 0.00 | 0.00 | 0.00 | 1004.4 | ||
| 20260504230051 | 23 | 17.7 | 25.7 | 0.00 | 0.00 | 0.00 | 31 | 1004.3 | |
| 20260504224547 | 23 | 5 | 17.7 | 25.7 | 0.00 | 0.00 | 0.00 | 31 | 1003.7 |
| 20260504223047 | 24 | 11 | 17.7 | 24.1 | 0.00 | 0.00 | 0.00 | 32 | 1003.6 |
| 20260504221543 | 24 | 42 | 16.1 | 25.7 | 0.00 | 0.00 | 0.00 | 33 | 1003.5 |
| 20260504220050 | -17 | 0.0 | 0.0 | 0.00 | 0.00 | 0.00 | 1002.9 | ||
| 20260504214554 | 25 | 348 | 17.7 | 27.4 | 0.00 | 0.00 | 0.00 | 34 | 1002.5 |
| 20260504213044 | 26 | 28 | 16.1 | 24.1 | 0.00 | 0.00 | 0.00 | 34 | 1002.6 |
| 20260504211546 | 26 | 17 | 12.9 | 20.9 | 0.00 | 0.00 | 0.00 | 32 | 1002.4 |
| 20260504210055 | 27 | 17 | 12.9 | 25.7 | 0.00 | 0.00 | 0.00 | 30 | 1002.5 |
| 20260504204556 | 26 | 21 | 9.7 | 19.3 | 0.00 | 0.00 | 0.00 | 32 | 1002.6 |
| 20260504203115 | 27 | 360 | 16.1 | 24.1 | 0.00 | 0.00 | 0.00 | 32 | 1002.4 |
| 20260504201549 | 27 | 360 | 16.1 | 25.7 | 0.00 | 0.00 | 0.00 | 29 | 1002.6 |
| 20260504200047 | 27 | 0 | 1.6 | 24.1 | 0.00 | 0.00 | 0.00 | 29 | 1002.7 |
| 20260504194544 | 27 | 352 | 17.7 | 25.7 | 0.00 | 0.00 | 0.00 | 28 | 1002.8 |
| 20260504193051 | 27 | 360 | 11.3 | 24.1 | 0.00 | 0.00 | 0.00 | 26 | 1002.7 |
| 20260504191539 | 27 | 304 | 9.7 | 17.7 | 0.00 | 0.00 | 0.00 | 27 | 1002.8 |
| 20260504190052 | 27 | 0 | 6.4 | 24.1 | 0.00 | 0.00 | 0.00 | 24 | 1002.8 |
| 20260504184538 | 26 | 307 | 12.9 | 25.7 | 0.00 | 0.00 | 0.00 | 27 | 1003.0 |
| 20260504183045 | 26 | 306 | 12.9 | 19.3 | 0.00 | 0.00 | 0.00 | 27 | 1003.0 |
| 20260504181542 | 26 | 313 | 11.3 | 25.7 | 0.00 | 0.00 | 0.00 | 27 | 1002.9 |
| 20260504180053 | 26 | 301 | 9.7 | 24.1 | 0.00 | 0.00 | 0.00 | 29 | 1003.1 |
| 20260504174549 | 26 | 306 | 16.1 | 22.5 | 0.00 | 0.00 | 0.00 | 29 | 1003.1 |
| 20260504173059 | 25 | 0 | 14.5 | 27.4 | 0.00 | 0.00 | 0.00 | 29 | 1003.3 |
| 20260504171549 | 25 | 300 | 12.9 | 25.7 | 0.00 | 0.00 | 0.00 | 30 | 1003.5 |
| 20260504081547 | 13 | 0 | 0.0 | 0.0 | 0.00 | 0.00 | 0.00 | 57 | 1004.8 |
| 20260504044539 | 16 | 0 | 0.0 | 0.0 | 0.00 | 0.00 | 0.00 | 46 | 1007.7 |
| 20260504043037 | 16 | 0 | 0.0 | 0.0 | 0.00 | 0.00 | 0.00 | 48 | 1007.8 |
| 20260504041546 | 16 | 0 | 0.0 | 0.0 | 0.00 | 0.00 | 0.00 | 47 | 1008.2 |
| 20260504040047 | 17 | 0 | 0.0 | 0.0 | 0.00 | 0.00 | 0.00 | 45 | 1008.3 |
| 20260504034547 | 17 | 0 | 0.0 | 0.0 | 0.00 | 0.00 | 0.00 | 44 | 1008.5 |
| 20260504033047 | 17 | 0 | 0.0 | 0.0 | 0.00 | 0.00 | 0.00 | 44 | 1008.8 |
| 20260504031548 | 17 | 0 | 0.0 | 0.0 | 0.00 | 0.00 | 0.00 | 43 | 1008.6 |
| 20260504030038 | 18 | 0 | 0.0 | 11.3 | 0.00 | 0.00 | 0.00 | 41 | 1008.8 |